| time (UTC) | temp C | wind direction | speed KPH | gust KPH | rain 1hr cm | rain 24hr cm | rain mn cm | humidity % | barometer mb |
| 20260505120107 | 9 | 301 | 0.0 | 6.4 | 0.03 | 0.03 | 0.03 | 65 | 1006.8 |
| 20260505114556 | 10 | 0 | 0.0 | 4.8 | 0.00 | 0.00 | 0.00 | 55 | 1005.8 |
| 20260505113101 | 10 | 281 | 0.0 | 6.4 | 0.00 | 0.00 | 0.00 | 52 | 1005.5 |
| 20260505111556 | 10 | 305 | 0.0 | 4.8 | 0.00 | 0.00 | 0.00 | 53 | 1004.7 |
| 20260505101557 | 11 | 331 | 0.0 | 4.8 | 0.00 | 0.00 | 0.00 | 54 | 1003.8 |
| 20260505100055 | 11 | 0 | 0.0 | 4.8 | 0.00 | 0.00 | 0.00 | 52 | 1004.0 |
| 20260505094600 | 12 | 0 | 0.0 | 3.2 | 0.00 | 0.00 | 0.00 | 53 | 1004.2 |
| 20260505093057 | 12 | 39 | 0.0 | 6.4 | 0.00 | 0.00 | 0.00 | 52 | 1004.0 |
| 20260505091551 | 13 | 275 | 0.0 | 8.0 | 0.00 | 0.00 | 0.00 | 51 | 1003.7 |
| 20260505090059 | 13 | 0 | 0.0 | 4.8 | 0.00 | 0.00 | 0.00 | 47 | 1003.6 |
| 20260505084600 | 13 | 0 | 0.0 | 6.4 | 0.00 | 0.00 | 0.00 | 45 | 1003.0 |
| 20260505083103 | 14 | 329 | 0.0 | 3.2 | 0.00 | 0.00 | 0.00 | 45 | 1002.3 |
| 20260505081556 | 14 | 316 | 0.0 | 4.8 | 0.00 | 0.00 | 0.00 | 45 | 1002.1 |
| 20260505080051 | 14 | 0 | 0.0 | 1.6 | 0.00 | 0.00 | 0.00 | 46 | 1001.8 |
| 20260505074556 | 15 | 0 | 0.0 | 6.4 | 0.00 | 0.00 | 0.00 | 45 | 1001.3 |
| 20260505073058 | 15 | 0 | 0.0 | 1.6 | 0.00 | 0.00 | 0.00 | 45 | 1001.2 |
| 20260505071559 | 15 | 0 | 0.0 | 3.2 | 0.00 | 0.00 | 0.00 | 43 | 1001.0 |
| 20260505070104 | 15 | 300 | 0.0 | 6.4 | 0.00 | 0.00 | 0.00 | 42 | 1000.7 |
| 20260505064558 | 15 | 278 | 1.6 | 9.7 | 0.00 | 0.00 | 0.00 | 44 | 1000.7 |
| 20260505063053 | 15 | 266 | 0.0 | 4.8 | 0.00 | 0.00 | 0.00 | 45 | 1000.5 |
| 20260505061612 | 15 | 328 | 0.0 | 9.7 | 0.00 | 0.00 | 0.00 | 44 | 1000.4 |
| 20260505060100 | 16 | 290 | 0.0 | 4.8 | 0.00 | 0.00 | 0.00 | 47 | 1000.2 |
| 20260505054557 | 16 | 265 | 0.0 | 6.4 | 0.00 | 0.00 | 0.00 | 52 | 1000.4 |
| 20260505053050 | 15 | 0 | 0.0 | 3.2 | 0.00 | 0.00 | 0.00 | 61 | 1000.4 |
| 20260505051555 | 16 | 283 | 0.0 | 4.8 | 0.00 | 0.00 | 0.00 | 62 | 999.8 |
| 20260505041601 | 16 | 0 | 0.0 | 1.6 | 0.00 | 0.00 | 0.00 | 70 | 999.1 |
| 20260505040103 | 17 | 0 | 0.0 | 3.2 | 0.00 | 0.00 | 0.00 | 70 | 999.1 |
| 20260505034601 | 17 | 287 | 0.0 | 1.6 | 0.00 | 0.00 | 0.00 | 70 | 999.4 |
| 20260505033101 | 17 | 0 | 0.0 | 4.8 | 0.00 | 0.00 | 0.00 | 70 | 999.3 |
| 20260505031557 | 16 | 0 | 0.0 | 1.6 | 0.00 | 0.00 | 0.00 | 70 | 999.1 |
| 20260505030056 | 16 | 286 | 0.0 | 4.8 | 0.00 | 0.00 | 0.00 | 71 | 998.7 |
| 20260505024556 | 16 | 246 | 0.0 | 8.0 | 0.00 | 0.00 | 0.00 | 72 | 998.5 |
| 20260505023057 | 16 | 0 | 1.6 | 11.3 | 0.00 | 0.00 | 0.00 | 72 | 998.5 |
| 20260505021602 | 17 | 213 | 1.6 | 11.3 | 0.00 | 0.00 | 0.00 | 72 | 998.0 |
| 20260505020059 | 17 | 0 | 1.6 | 12.9 | 0.00 | 0.00 | 0.00 | 72 | 997.6 |
| 20260505014556 | 17 | 299 | 1.6 | 11.3 | 0.00 | 0.00 | 0.00 | 70 | 997.8 |
| 20260505013058 | 18 | 257 | 1.6 | 11.3 | 0.00 | 0.00 | 0.00 | 68 | 997.7 |
| 20260505011557 | 18 | 278 | 3.2 | 11.3 | 0.00 | 0.00 | 0.00 | 68 | 997.2 |
| 20260505010107 | 18 | 0 | 0.0 | 9.7 | 0.00 | 0.00 | 0.00 | 68 | 997.1 |
| 20260505004602 | 18 | 0 | 0.0 | 4.8 | 0.00 | 0.00 | 0.00 | 67 | 996.8 |
| 20260505003055 | 18 | 207 | 1.6 | 14.5 | 0.00 | 0.00 | 0.00 | 65 | 996.6 |
| 20260505001613 | 18 | 193 | 3.2 | 12.9 | 0.00 | 0.00 | 0.00 | 66 | 997.1 |
| 20260504234605 | 18 | 0 | 0.0 | 14.5 | 0.00 | 0.00 | 0.00 | 63 | 996.8 |
| 20260504233057 | 21 | 288 | 1.6 | 6.4 | 0.00 | 0.00 | 0.00 | 57 | 997.3 |
| 20260504231556 | 22 | 184 | 0.0 | 8.0 | 0.00 | 0.00 | 0.00 | 55 | 996.0 |
| 20260504230055 | 23 | 146 | 0.0 | 4.8 | 0.00 | 0.00 | 0.00 | 50 | 995.6 |
| 20260504224556 | 23 | 198 | 1.6 | 17.7 | 0.00 | 0.00 | 0.00 | 50 | 996.0 |
| 20260504223056 | 23 | 290 | 3.2 | 11.3 | 0.00 | 0.00 | 0.00 | 48 | 996.5 |
| 20260504221555 | 25 | 142 | 3.2 | 14.5 | 0.00 | 0.00 | 0.00 | 41 | 996.2 |
| 20260504220104 | 26 | 304 | 0.0 | 4.8 | 0.00 | 0.00 | 0.00 | 39 | 996.0 |
| 20260504214557 | 25 | 0 | 0.0 | 17.7 | 0.00 | 0.00 | 0.00 | 41 | 996.1 |
| 20260504213109 | 26 | 0 | 3.2 | 9.7 | 0.00 | 0.00 | 0.00 | 36 | 996.4 |
| 20260504211551 | 26 | 257 | 1.6 | 8.0 | 0.00 | 0.00 | 0.00 | 37 | 996.5 |
| 20260504210101 | 26 | 258 | 1.6 | 14.5 | 0.00 | 0.00 | 0.00 | 36 | 996.5 |
| 20260504204600 | 26 | 269 | 1.6 | 16.1 | 0.00 | 0.00 | 0.00 | 36 | 996.7 |
| 20260504203056 | 26 | 283 | 3.2 | 16.1 | 0.00 | 0.00 | 0.00 | 38 | 996.7 |
| 20260504201556 | 26 | 300 | 3.2 | 11.3 | 0.00 | 0.00 | 0.00 | 38 | 997.0 |
| 20260504200054 | 26 | 248 | 0.0 | 12.9 | 0.00 | 0.00 | 0.00 | 36 | 997.2 |
| 20260504194556 | 26 | 234 | 3.2 | 17.7 | 0.00 | 0.00 | 0.00 | 32 | 997.3 |
| 20260504193104 | 26 | 236 | 4.8 | 12.9 | 0.00 | 0.00 | 0.00 | 31 | 997.5 |
| 20260504191550 | 26 | 243 | 1.6 | 12.9 | 0.00 | 0.00 | 0.00 | 34 | 997.7 |
| 20260504190056 | 26 | 273 | 3.2 | 19.3 | 0.00 | 0.00 | 0.00 | 36 | 997.6 |
| 20260504184554 | 25 | 312 | 3.2 | 12.9 | 0.00 | 0.00 | 0.00 | 31 | 997.7 |
| 20260504183101 | 25 | 148 | 1.6 | 11.3 | 0.00 | 0.00 | 0.00 | 33 | 997.8 |
| 20260504181550 | 25 | 226 | 1.6 | 11.3 | 0.00 | 0.00 | 0.00 | 33 | 998.1 |
| 20260504180132 | 25 | 242 | 3.2 | 17.7 | 0.00 | 0.00 | 0.00 | 37 | 998.4 |
| 20260504174551 | 25 | 286 | 1.6 | 14.5 | 0.00 | 0.03 | 0.00 | 39 | 998.5 |
| 20260504173054 | 25 | 0 | 1.6 | 17.7 | 0.00 | 0.03 | 0.00 | 39 | 998.7 |
| 20260504171553 | 24 | 78 | 3.2 | 16.1 | 0.00 | 0.03 | 0.00 | 39 | 999.0 |